THOR ABLESTAR DEB, 330

Orbit data source: Space-Track

THOR ABLESTAR DEB, 330 is space debris in LEO originally from a launch on Thu, 29 Jun 1961 UTC launched from the Air Force Eastern Test Range (AFETR). Debris objects in space refer to the collection of defunct objects orbiting the Earth. Examples of debris include non-operational satellites, rocket bodies, and fragments generated from explosions, collisions, or faulty payload assembly.

Loading next visibility...
THOR ABLESTAR DEB details
Identifier
330, 1961-015DG
Orbit
LEO
Last TLE update6 hours ago
Origin
Flag of USUSAF SSD (US)
ManufacturerUnknown
MissionSpacecraft
Bus & MotorUnknown
MassUnknown
Launch date (UTC)
1961-06-29 (64 years ago)
Launch vehicleUnknown
Launch site
Air Force Eastern Test Range (AFETR)
Object type
Payload
Rocket body
Debris
Shape & HBRUnknown
Radar Cross SectionSmall (<0.1 m²)

Expand to show TLE details & history

TLE from 6 hours ago
0 THOR ABLESTAR DEB
1   330U 61015DG  25023.50744244  .00002262  00000-0  14225-2 0  9999
2   330  66.9802 131.3581 0046429 145.5761 214.8350 14.05587870225541
Epoch: 2025-01-23T12:10Z
Definitive object data (Epoch: 2025-01-23T12:10:43.026Z)
Latitude-0.00004°
Longitude-174.40516°
Altitude904.307 km
Speed7.386 km/s
True Right ascension08h 45m 25s
True Declination0° 00' 00"
Sunlit
Object was in full shadow at TLE epoch
Visualization TLE readout
Latitude-51.04558°
Longitude36.46784°
Altitude894.514 km
Speed7.404 km/s
Apparent Right ascension03h 30m 59s
Apparent Declination-68° 24' 21"
Sunlit
Object is in daylight
Visualization observer readout
Local Sidereal Time19:38:17
Azimuth151.666° SSE
Elevation-46.879°
Doppler factor1
Orbital elements
Apogee altitude906.536 km
Perigee altitude839.205 km
Semi-major axis7,251.008 km
Eccentricity0.0046429
Inclination66.9802°
RAAN131.3581°
Arg. of periapsis145.5761°
True anomaly214.53253°
Mean anomaly214.835°
Eccentric anomaly214.68362°
Mean motion3.51516 °/min
BSTAR0.0014225
Orbital period102.41 mins
Loading maneuver chart data...

THOR ABLESTAR DEB Visibility forecast

Observer location: undefined°, undefined

Span
Click to sort rows by Start time (UTC) header in descending order
Start Az.
Max El. time (UTC)
Max El. Az.
Max El.
End time (UTC)
End Az.
5 mins2025-01-23 19:38:24.465Z284.835° WNW2025-01-23 19:41:24.465Z251.079° W13.974°2025-01-23 19:43:24.465Z229.195° WSW
4 mins2025-01-24 07:07:24.465Z116.155° SE2025-01-24 07:08:24.465Z104.789° ESE14.301°2025-01-24 07:11:24.465Z72.851° E
10 mins2025-01-24 08:48:24.465Z213.332° SW2025-01-24 08:53:24.465Z336.1° NNW44.136°2025-01-24 08:58:24.465Z25.989° NE
5 mins2025-01-24 10:37:24.465Z297.538° NW2025-01-24 10:39:24.465Z320.293° NNW14.631°2025-01-24 10:42:24.465Z352.397° N
4 mins2025-01-24 16:03:24.465Z22.457° NNE2025-01-24 16:05:24.465Z46.812° ENE15.182°2025-01-24 16:07:24.465Z69.783° E
9 mins2025-01-24 17:47:24.465Z332.748° NNW2025-01-24 17:51:24.465Z132.798° SE44.594°2025-01-24 17:56:24.465Z151.424° SSE
|